sat.trackr.live / text

‹ back to catalog

STARLINK-2516

NORAD 48283 · 2021-036H

PAYLOAD ACTIVE UNKNOWN

§ Identity

Operator
Country
US
Launch date
2021-04-29
Launch site
AFETR
Launch vehicle
Mass (kg)
RCS (m²)

Purposes: comms

External: N2YO · Heavens-Above · Gunter

§ Orbital elements

Epoch: 2026-09-20T04:08:12.067296Z

Period
94.01 min
Inclination
53.1582°
Eccentricity
0.0001200
Mean motion
15.31707904 rev/d
Perigee alt
469.9 km
Apogee alt
471.5 km
Semi-major
6,848.9 km
B*
5.5028e-5
RAAN
250.2821°
Arg perigee
85.7532°
Mean anomaly
274.3607°
Rev number
29,821

§ Raw data

STARLINK-25161 48283U 21036H   26263.17236189  .00001343  00000+0  55028-4 0  99972 48283  53.1582 250.2821 0001200  85.7532 274.3607 15.31707904298212

JSON: /api/v1/satellites/48283 · /tle

For live sub-satellite position, see the globe view (requires WebGL).

§ Visibility from observer

Set your observer location to see the next 7 days of passes ≥ 10°. The values pass through the URL so the page stays shareable.

No JS? Fill the form by hand. The geolocation button needs JavaScript.